Location: Unspecified
(0.0000°N, 0.0000°E)
Time: 06:34:46
(UTC+00:00)

LEMUR 2 DEMBITZ - Pass Details

Date: 20 January 2026
Orbit: 483 x 493 km, 97.4° (Epoch: 10 February)

Event Time Altitude Azimuth Distance (km) Brightness Sun altitude
Rises 04:59:52 0° 150° (SSE) 2,583 ? -16.7°
Reaches altitude 10° 05:02:10 10° 138° (SE) 1,698 ? -16.1°
Maximum altitude 05:05:18 27° 79° (E) 982 ? -15.4°
Drops below altitude 10° 05:08:25 10° 20° (NNE) 1,690 ? -14.7°
Sets 05:10:41 0° 8° (N) 2,568 ? -14.1°
